Tracking 23762 objects as of 20-Oct-2021
HD Live streaming from Space Station
objects crossing your sky now

ECAMSAT

Track ECAMSAT now!
10-day predictions
ECAMSAT is classified as:


NORAD ID: 43019
Int'l Code: 1998-067NG
Perigee: 295.1 km
Apogee: 302.4 km
Inclination: 51.6 °
Period: 90.3 minutes
Semi major axis: 6669 km
RCS: Unknown
Launch date: November 20, 1998
Source: United States (US)
Launch site: TYURATAM MISSILE AND SPACE COMPLEX (TTMTR)

Uplink (MHz):
Downlink (MHz): 437.095
Beacon (MHz):
Mode: 1200bps AFSK
Call sign: KE6QLL
Status: Inactive

aabbcc
Your satellite tracking list
Your tracking list is empty




NASA's NSSDC Master Catalog

Two Line Element Set (TLE):
1 43019U 98067NG  21292.72445327  .00117111  16451-4  32134-3 0  9996
2 43019  51.6356 296.2880 0005436  62.9200 297.2362 15.93811703309895
Source of the keplerian elements: AMSAT